Home   Weather   Labrador City   Past weeks

Flag for Canada Past Weather in Labrador City, Newfoundland and Labrador, Canada — Yesterday and Last 2 Weeks

Now
-8 °F

Scattered clouds.


Feels Like: -8 °F
Forecast: -2 / 7 °F
Wind: 2 mph from South

Location: Wabush Lake

Current Time: Dec 7, 2016 at 10:40:19 am

Latest Report: Dec 7, 2016 at 10:00 am


Visibility: 15 mi

Pressure: 30.00 "Hg (27.80 "Hg at 558m altitude)

Humidity: 84%

Dew Point: -11 °F

Location of Labrador CityLocation

Past Weather in Labrador City — Graph

°F

Labrador City Temperature Yesterday

Maximum temperature yesterday: 16 °F (at 1:00 am)
Minimum temperature yesterday: 5 °F (at 10:54 pm)
Average temperature yesterday: 12 °F

High & Low Weather Summary for the Past Weeks

 TemperatureHumidityPressure
High32 °F (Nov 22, 9:00 am)93% (Nov 22, 9:00 am)30.52 "Hg (Nov 22, 9:00 am)
Low-13 °F (Nov 27, 8:00 am)62% (Nov 28, 7:00 am)29.58 "Hg (Nov 22, 9:00 am)
Average9 °F85%30.16 "Hg
* Reported Nov 22 9:00 am — Dec 7 9:00 am, Labrador City, Weather by CustomWeather, © 2016

Note: Actual official high and low records may vary slightly from our data, if they occured in-between our weather recording intervals... More about our weather records

Advertising

Labrador City Weather History for the Previous 24 Hours

Scroll right to see more
 ConditionsComfort  
Time TempWeatherWind HumidityBarometerVisibility
9:00 am
Wed, Dec 7
-9 °FSnow flurries. Partly cloudy.3 mph77%30.01 "Hg15 mi
8:00 am-11 °FSnow flurries. Passing clouds.2 mph76%30.00 "Hg15 mi
7:00 am-8 °FSnow flurries. Clear.2 mph84%30.01 "Hg15 mi
6:00 am1 °FSnow flurries. Passing clouds.3 mph85%30.01 "Hg15 mi
5:02 am-8 °FClear.3 mph84%30.00 "Hg9 mi
4:04 am-9 °FLight snow. Clear.6 mph84%30.01 "Hg9 mi
3:59 am-4 °FClear.5 mph84%30.00 "Hg9 mi
3:00 am-8 °FLight snow. Clear.No wind84%30.01 "Hg9 mi
2:00 am-8 °FLight snow. Passing clouds.3 mph77%30.02 "Hg9 mi
1:00 am0 °FLight snow. Passing clouds.No wind84%30.00 "Hg9 mi
12:01 am3 °FLight snow. Passing clouds.3 mph85%29.99 "Hg2 mi
11:00 pm
Tue, Dec 6
5 °FLight snow. Passing clouds.6 mph85%30.00 "Hg8 mi
10:54 pm5 °FLight snow. Partly cloudy.7 mph92%30.01 "Hg6 mi
10:00 pm7 °FLight snow. Passing clouds.7 mph92%30.01 "Hg10 mi
8:00 pm9 °FSnow flurries. Clear.9 mph85%30.02 "Hg10 mi
7:00 pm9 °FSnow flurries. Clear.6 mph85%30.01 "Hg15 mi
6:00 pm9 °FSnow flurries. Clear.12 mph85%30.01 "Hg10 mi
5:55 pm9 °FSnow flurries. Clear.9 mph85%30.01 "Hg10 mi
5:00 pm10 °FPassing clouds.7 mph85%30.01 "Hg15 mi
3:00 pm16 °FSnow flurries. Broken clouds.7 mph73%29.99 "Hg15 mi
1:00 pm14 °FSnow flurries. Partly sunny.5 mph79%29.98 "Hg12 mi
12:00 pm14 °FSnow flurries. Partly sunny.9 mph79%29.98 "Hg10 mi
11:00 am14 °FSnow flurries. Overcast.9 mph79%29.98 "Hg6 mi
10:00 am14 °FSnow flurries. Overcast.13 mph85%29.99 "Hg4 mi
Weather by CustomWeather, © 2016

See weather overviewHow to use our weather pages